Preview of NWS' New Version of Forecast
This preview is not operational and should not be used for support decisions.

Regional Weather Roundup (RWR)

Issued by National Weather Service (NWS)

                            
000
ASUS44 KJAN 171210
RWRMS 

MISSISSIPPI HOURLY WEATHER ROUNDUP
NATIONAL WEATHER SERVICE JACKSON MS
600 AM CST SUN FEB 17 2019

NOTE: "FAIR: INDICATES FEW OR NO CLOUDS BELOW 12,000 FEET WITH NO
SIGNIFICANT WEATHER AND/OR OBSTRUCTIONS TO VISIBILITY.

MSZ001>002-007>008-010>013-018>021-025>028-034>036-171300-
NORTHWEST MISSISSIPPI
  
CITY           SKY/WX    TMP DP  RH WIND       PRES   REMARKS
BATESVILLE     FOG       46  45  93 N6        29.72S VSB 1            
CLARKSDALE     FOG       45  45 100 N6        29.74S VSB 1            
CLEVELAND      CLOUDY    45  45 100 N8        29.75R FOG              
GREENWOOD      CLOUDY    54  52  93 S9        29.71F                  
6HR MIN TEMP:  46; 6HR MAX TEMP:  54;                                

GREENVILLE     CLOUDY    46  45  96 NW5       29.75R                  
6HR MIN TEMP:  44; 6HR MAX TEMP:  48; 6HR PCP: TRACE;                

OLIVE BRANCH   FOG       39 N/A N/A N3        29.74S VSB 1/2          
OXFORD         FOG       46  46 100 CALM      29.75R VSB 1/2          
TUNICA           N/A     41  39  93 N7        29.75S FOG              
WINONA         CLOUDY    49  49 100 CALM      29.72F FOG              
$$

MSZ003>006-009-014>017-022>024-029>033-037>039-171300-
NORTHEAST MISSISSIPPI
  
CITY           SKY/WX    TMP DP  RH WIND       PRES   REMARKS
ABERDEEN       CLOUDY    48  48 100 S8        29.78R                  
COLUMBUS AFB   CLOUDY    51  49  93 S3        29.76R                  
6HR MIN TEMP:  46; 6HR MAX TEMP:  51; 6HR PCP: TRACE;                

CORINTH        CLOUDY    46  46 100 S6        29.73R FOG              
GOLDN TRIANGLE CLOUDY    50  49  96 S9        29.77R                  
STARKVILLE     CLOUDY    48  46  93 S5        29.78R                  
TUPELO         CLOUDY    48  46  93 S9        29.75R FOG              
6HR MIN TEMP:  43; 6HR MAX TEMP:  48; 6HR PCP:  0.05;                

$$

MSZ040-058-171300-
CENTRAL MISSISSIPPI
  
CITY           SKY/WX    TMP DP  RH WIND       PRES   REMARKS
JACKSON INTL   CLOUDY    61  59  93 S6        29.76R                  
6HR MIN TEMP:  55; 6HR MAX TEMP:  62;                                

JACKSON HAWKNS CLOUDY    64  63  96 SW6       29.76R                  
6HR MIN TEMP:  53; 6HR MAX TEMP:  64;                                

MADISON        CLOUDY    61  61 100 S5        29.75R                  
MERIDIAN KEY   CLOUDY    57  52  83 CALM      29.77F                  
MERIDIAN NAS   CLOUDY    53  52  96 SE6       29.77F FOG              
6HR MIN TEMP:  49; 6HR MAX TEMP:  53;                                

RAYMOND        CLOUDY    64  64 100 S5        29.74R                  
VICKSBURG VKS  CLOUDY    61  61 100 CALM      29.74R                  
$$

MSZ059>079-171300-
SOUTH MISSISSIPPI
  
CITY           SKY/WX    TMP DP  RH WIND       PRES   REMARKS
HATTIESBURG    CLOUDY    67  63  87 S6        29.77R                  
6HR MIN TEMP:  63; 6HR MAX TEMP:  67;                                

LAUREL         CLOUDY    58  58 100 CALM      29.78R                  
MCCOMB         CLOUDY    66  62  87 S10       29.73S                  
6HR MIN TEMP:  65; 6HR MAX TEMP:  67;                                

NATCHEZ        CLOUDY    66  63  90 S8        29.73R                  
6HR MIN TEMP:  61; 6HR MAX TEMP:  66; 6HR PCP: TRACE;                

PINE BELT      CLOUDY    65  63  93 S5        29.78R                  
6HR MIN TEMP:  61; 6HR MAX TEMP:  65;                                

$$

MSZ080>082-171300-
COASTAL MISSISSIPPI
  
CITY           SKY/WX    TMP DP  RH WIND       PRES   REMARKS
BILOXI         FOG       64  64 100 S7        29.80R VSB 5/8          
6HR MIN TEMP:  64; 6HR MAX TEMP:  65;                                

PASCAGOULA     CLOUDY    69  66  90 S6        29.79S FOG              
6HR MIN TEMP:  68; 6HR MAX TEMP:  70;                                

GULFPORT       FOG       64  64 100 S7        29.79R VSB 1            
6HR MIN TEMP:  64; 6HR MAX TEMP:  65;                                

$$

LAZ007>009-015>016-023>026-171300-
NORTHEAST LOUISIANA
  
CITY           SKY/WX    TMP DP  RH WIND       PRES   REMARKS
BASTROP        CLOUDY    45  45  98 CALM      29.76S FOG              
TALLULAH/VBURG CLOUDY    57  54  89 CALM      29.75R                  
6HR MIN TEMP:  50; 6HR MAX TEMP:  57;                                

VIDALIA        CLOUDY    64  62  94 S3        29.72R                  
$$